CORVUS BC4

Last updated on Thu Nov 21 2024 00:03:40 GMT+0000 (Coordinated Universal Time)

1 43767U 18099K 24325.60626839 .00007924 00000+0 56068-3 0 9999 2 43767 97.4918 14.1898 0010192 162.3836 197.7746 15.05069762325899
UTC large
Height (km)
Speed (km/s)
/
Latitude / Longitude
Inclination (degrees)
Orbital Period (minutes)
Azimuth
Elevation
Range (km)
Doppler Factor

Next 0 passes for location: London (51.5072 / 0.1276)

Sorry there are no passes over London.